Hourly Weather Alio

Today, 7 March, Sunday

Time Temperature Precipitation Wind Pressure Humidity
00:00 +8°C° 0 mm 2 mps 742 mmHg 84%
01:00 +8°C° 0 mm 2 mps 741 mmHg 83%
02:00 +7°C° 0 mm 2 mps 741 mmHg 82%
03:00 +7°C° 0 mm 2 mps 741 mmHg 81%
04:00 +7°C° 0 mm 2 mps 741 mmHg 81%
05:00 +7°C° 0 mm 2 mps 740 mmHg 80%
06:00 +7°C° 0 mm 2 mps 740 mmHg 79%
07:00 +8°C° 0 mm 2 mps 740 mmHg 73%
08:00 +11°C° 0 mm 1 mps 740 mmHg 67%
09:00 +12°C° 0 mm 1 mps 740 mmHg 61%
10:00 +13°C° 0 mm 2 mps 740 mmHg 59%
11:00 +14°C° 0 mm 2 mps 740 mmHg 57%
12:00 +14°C° 0 mm 3 mps 739 mmHg 55%
13:00 +14°C° 0 mm 3 mps 739 mmHg 58%
14:00 +13°C° 0 mm 3 mps 738 mmHg 60%
15:00 +13°C° 0 mm 3 mps 738 mmHg 63%
16:00 +13°C° 0 mm 2 mps 737 mmHg 69%
17:00 +12°C° 0 mm 2 mps 737 mmHg 76%
18:00 +11°C° 0 mm 1 mps 737 mmHg 83%
19:00 +11°C° 0 mm 1 mps 737 mmHg 84%
20:00 +10°C° 0 mm 1 mps 737 mmHg 85%
21:00 +10°C° 0 mm 1 mps 737 mmHg 87%
22:00 +10°C° 0 mm 1 mps 737 mmHg 86%
23:00 +10°C° 0 mm 1 mps 737 mmHg 86%

Tomorrow, 8 March, Monday

Time Temperature Precipitation Wind Pressure Humidity
00:00 +9°C° 0 mm 1 mps 737 mmHg 86%
01:00 +9°C° 0 mm 1 mps 736 mmHg 85%
02:00 +9°C° 0 mm 1 mps 736 mmHg 85%
03:00 +9°C° 0 mm 1 mps 736 mmHg 84%
04:00 +10°C° 0 mm 1 mps 736 mmHg 83%
05:00 +10°C° 0 mm 1 mps 736 mmHg 82%
06:00 +10°C° 0 mm 1 mps 736 mmHg 81%
07:00 +10°C° 0.1 mm 1 mps 736 mmHg 80%
08:00 +11°C° 0.1 mm 1 mps 736 mmHg 78%
09:00 +11°C° 0.1 mm 1 mps 737 mmHg 76%
10:00 +11°C° 0.3 mm 1 mps 737 mmHg 77%
11:00 +11°C° 0.3 mm 1 mps 737 mmHg 78%
12:00 +11°C° 0.3 mm 1 mps 737 mmHg 79%
13:00 +12°C° 0.2 mm 2 mps 737 mmHg 79%
14:00 +12°C° 0.2 mm 2 mps 736 mmHg 78%
15:00 +12°C° 0.2 mm 2 mps 736 mmHg 77%
16:00 +10°C° 0.4 mm 2 mps 736 mmHg 80%
17:00 +11°C° 0.4 mm 1 mps 736 mmHg 83%
18:00 +10°C° 0.4 mm 1 mps 737 mmHg 86%
19:00 +10°C° 0.9 mm 1 mps 737 mmHg 87%
20:00 +9°C° 0.9 mm 2 mps 737 mmHg 88%
21:00 +9°C° 0.9 mm 2 mps 738 mmHg 88%
22:00 +9°C° 0.2 mm 2 mps 738 mmHg 88%
23:00 +9°C° 0.2 mm 2 mps 738 mmHg 88%

Day after tomorrow, 9 March, Tuesday

Time Temperature Precipitation Wind Pressure Humidity
00:00 +9°C° 0.2 mm 3 mps 738 mmHg 88%
01:00 +9°C° 0.1 mm 3 mps 738 mmHg 88%
02:00 +9°C° 0.1 mm 3 mps 738 mmHg 88%
03:00 +8°C° 0.1 mm 3 mps 737 mmHg 88%
04:00 +8°C° 0 mm 3 mps 738 mmHg 87%
05:00 +8°C° 0 mm 3 mps 738 mmHg 87%
06:00 +6°C° 0 mm 4 mps 738 mmHg 87%
07:00 +8°C° 0 mm 3 mps 738 mmHg 83%
08:00 +9°C° 0 mm 3 mps 738 mmHg 79%
09:00 +10°C° 0 mm 3 mps 739 mmHg 75%
10:00 +11°C° 0 mm 3 mps 739 mmHg 71%
11:00 +12°C° 0 mm 4 mps 739 mmHg 68%
12:00 +13°C° 0 mm 4 mps 739 mmHg 64%
13:00 +13°C° 0 mm 4 mps 739 mmHg 61%
14:00 +13°C° 0 mm 4 mps 738 mmHg 58%
15:00 +14°C° 0 mm 4 mps 738 mmHg 56%
16:00 +13°C° 0 mm 4 mps 738 mmHg 59%
17:00 +12°C° 0 mm 4 mps 738 mmHg 63%
18:00 +11°C° 0 mm 4 mps 739 mmHg 66%
19:00 +10°C° 0 mm 4 mps 739 mmHg 67%
20:00 +8°C° 0 mm 4 mps 740 mmHg 69%
21:00 +8°C° 0 mm 4 mps 740 mmHg 70%
22:00 +7°C° 0 mm 4 mps 741 mmHg 70%
23:00 +8°C° 0 mm 3 mps 741 mmHg 70%

10 March, Wednesday

Time Temperature Precipitation Wind Pressure Humidity
00:00 +7°C° 0 mm 3 mps 741 mmHg 70%
01:00 +7°C° 0 mm 3 mps 741 mmHg 71%
02:00 +5°C° 0 mm 3 mps 741 mmHg 72%
03:00 +5°C° 0 mm 3 mps 741 mmHg 73%
04:00 +6°C° 0 mm 2 mps 741 mmHg 74%
05:00 +6°C° 0 mm 2 mps 741 mmHg 75%
06:00 +6°C° 0 mm 1 mps 741 mmHg 76%
07:00 +8°C° 0 mm 1 mps 742 mmHg 71%
08:00 +9°C° 0 mm 1 mps 742 mmHg 67%
09:00 +10°C° 0 mm 1 mps 742 mmHg 62%
10:00 +12°C° 0 mm 1 mps 742 mmHg 59%
11:00 +13°C° 0 mm 2 mps 742 mmHg 55%
12:00 +14°C° 0 mm 2 mps 742 mmHg 52%
13:00 +14°C° 0 mm 2 mps 742 mmHg 51%
14:00 +15°C° 0 mm 2 mps 742 mmHg 51%
15:00 +15°C° 0 mm 2 mps 741 mmHg 50%
16:00 +14°C° 0 mm 2 mps 742 mmHg 55%
17:00 +12°C° 0 mm 2 mps 742 mmHg 60%
18:00 +10°C° 0 mm 2 mps 742 mmHg 65%
19:00 +9°C° 0 mm 2 mps 742 mmHg 67%
20:00 +10°C° 0 mm 1 mps 743 mmHg 69%
21:00 +9°C° 0 mm 1 mps 743 mmHg 71%
22:00 +9°C° 0 mm 1 mps 743 mmHg 72%
23:00 +9°C° 0 mm 1 mps 743 mmHg 73%

11 March, Thursday

Time Temperature Precipitation Wind Pressure Humidity
00:00 +9°C° 0 mm 1 mps 743 mmHg 74%
01:00 +8°C° 0 mm 1 mps 743 mmHg 73%
02:00 +8°C° 0 mm 1 mps 743 mmHg 73%
03:00 +8°C° 0 mm 1 mps 742 mmHg 72%
04:00 +8°C° 0 mm 1 mps 742 mmHg 71%
05:00 +8°C° 0 mm 1 mps 742 mmHg 71%
06:00 +7°C° 0 mm 0 mps 742 mmHg 71%
07:00 +10°C° 0 mm 1 mps 742 mmHg 67%
08:00 +11°C° 0 mm 1 mps 742 mmHg 64%
09:00 +13°C° 0 mm 1 mps 743 mmHg 61%
10:00 +14°C° 0 mm 1 mps 742 mmHg 57%
11:00 +15°C° 0 mm 2 mps 742 mmHg 53%
12:00 +17°C° 0 mm 2 mps 742 mmHg 49%
13:00 +17°C° 0 mm 3 mps 742 mmHg 51%
14:00 +17°C° 0 mm 3 mps 741 mmHg 53%
15:00 +17°C° 0 mm 4 mps 741 mmHg 55%
16:00 +14°C° 0 mm 3 mps 740 mmHg 62%
17:00 +14°C° 0 mm 2 mps 740 mmHg 68%
18:00 +12°C° 0 mm 2 mps 740 mmHg 75%
19:00 +12°C° 0 mm 2 mps 740 mmHg 77%
20:00 +12°C° 0 mm 2 mps 740 mmHg 78%
21:00 +10°C° 0 mm 2 mps 740 mmHg 80%
22:00 +11°C° 0 mm 1 mps 740 mmHg 79%
23:00 +11°C° 0 mm 1 mps 740 mmHg 79%

12 March, Friday

Time Temperature Precipitation Wind Pressure Humidity
00:00 +10°C° 0 mm 0 mps 739 mmHg 78%
01:00 +11°C° 0 mm 1 mps 739 mmHg 79%
02:00 +10°C° 0 mm 1 mps 738 mmHg 79%
03:00 +10°C° 0 mm 1 mps 738 mmHg 80%
04:00 +10°C° 0 mm 1 mps 738 mmHg 79%
05:00 +10°C° 0 mm 1 mps 738 mmHg 78%
06:00 +10°C° 0 mm 1 mps 738 mmHg 77%
07:00 +12°C° 0 mm 1 mps 738 mmHg 73%
08:00 +13°C° 0 mm 1 mps 738 mmHg 69%
09:00 +14°C° 0 mm 1 mps 738 mmHg 64%
10:00 +15°C° 0 mm 2 mps 738 mmHg 61%
11:00 +16°C° 0 mm 3 mps 738 mmHg 58%
12:00 +17°C° 0 mm 3 mps 738 mmHg 54%
13:00 +17°C° 0 mm 3 mps 737 mmHg 55%
14:00 +17°C° 0 mm 3 mps 737 mmHg 56%
15:00 +17°C° 0 mm 3 mps 736 mmHg 57%
16:00 +16°C° 0 mm 3 mps 736 mmHg 63%
17:00 +15°C° 0 mm 2 mps 736 mmHg 69%
18:00 +13°C° 0 mm 1 mps 735 mmHg 75%
19:00 +13°C° 0 mm 1 mps 736 mmHg 77%
20:00 +12°C° 0 mm 1 mps 736 mmHg 78%
21:00 +12°C° 0 mm 1 mps 736 mmHg 80%
22:00 +10°C° 0 mm 2 mps 736 mmHg 82%
23:00 +10°C° 0 mm 2 mps 736 mmHg 85%
Show more